TDRS 6

Last updated on Tue Sep 16 2025 00:02:40 GMT+0000 (Coordinated Universal Time)

1 22314U 93003B 25258.12336829 -.00000306 00000+0 00000+0 0 9991 2 22314 14.1768 359.0801 0011232 188.7395 165.1590 1.00270013119649
UTC large
Height (km)
Speed (km/s)
/
Latitude / Longitude
Inclination (degrees)
Orbital Period (minutes)
Azimuth
Elevation
Range (km)
Doppler Factor

Next 0 passes for location: London (51.5072 / 0.1276)

Sorry there are no passes over London.